Location: Unspecified
(47.9110°N, 14.3980°E)
Time: 17:50:39
(UTC+00:00)

Meteor 1-18 Rocket - Pass Details

Date: 06 August 2020
Orbit: 836 x 909 km, 81.2° (Epoch: 25 September)

Event Time Altitude Azimuth Distance (km) Brightness Sun altitude
Rises 21:10:09 0° 347° (NNW) 3,439 8.7 -20.5°
Reaches altitude 10° 21:12:36 10° 346° (NNW) 2,489 7.7 -20.7°
Maximum altitude 21:18:13 79° 262° (W) 863 4.2 -21.2°
Enters shadow 21:20:18 40° 182° (S) 1,216 4.6 -21.3°
